Lid_Strength_Index
1 6 6 7 11 10 10 9 8 7 7 6 6 6 6 6 8 9 2 0 0 0 -1 -1 -1 -1 -1 -1 -1 -1 -1 -1 -1 -1 -1 -1 -1 -1 -1 -1 -1 -1 -1 -1 -1 -1 -1 -1 -1
3 6 6 9 12 13 11 9 8 6 5 5 7 7 7 7 4 4 3 0 -0 -0 -1 -1 -1 -1 -1 -1 -1 -1 -1 -1 -1 -1 -1 -1 -1 -1 -1 -1 -1 -1 -1 -1 -1 -1 -1 -1 -1
5 5 7 10 13 13 11 9 8 7 7 7 7 6 6 6 4 3 1 0 -0 -0 -1 -1 -1 -1 -1 -1 -1 -1 -1 -1 -1 -1 -1 -1 -1 -1 -1 -1 -1 -1 -1 -1 -1 -1 -1 -1 -1
6 6 7 11 13 12 11 8 9 10 9 8 8 9 6 2 3 2 0 0 0 0 -1 -1 -1 -1 -1 -1 -1 -1 -1 -1 -1 -1 -1 -1 -1 -1 -1 -1 -1 -1 -1 -1 -1 -1 -1 -1 -1
7 8 11 13 13 11 11 9 9 10 10 9 9 9 7 3 1 1 1 0 1 0 -1 -1 -1 -1 -1 -1 -1 -1 -1 -1 -1 -1 -1 -1 -1 -1 -1 -1 -1 -1 -1 -1 -1 -1 -1 -1 -2
9 9 13 14 12 10 9 8 9 10 10 10 10 10 8 2 2 1 1 1 0 0 -0 -1 -1 -1 -1 -1 -1 -1 -1 -1 -1 -1 -1 -1 -1 -1 -1 -1 -1 -1 -1 -1 -1 -1 -1 -2 -2
10 11 13 13 12 11 10 8 9 9 10 10 9 10 5 4 2 1 1 0 0 -0 -0 -0 -1 -1 -1 -1 -1 -1 -1 -1 -1 -1 -1 -1 -1 -1 -1 -1 -1 -1 -1 -1 -1 -1 -2 -2 -2
9 9 13 12 13 12 9 8 8 8 10 8 9 10 7 4 1 1 1 1 0 0 -0 -0 -1 -1 -1 -1 -1 -1 -1 -1 -1 -1 -1 -1 -1 -1 -1 -1 -1 -1 -1 -1 -1 -1 -1 -1 -1
9 12 13 13 12 11 9 9 7 7 7 8 8 5 3 2 2 2 2 2 1 1 0 -0 -0 -1 -1 -1 -1 -1 -1 -1 -1 -1 -1 -1 -1 -1 -1 -1 -1 -1 -2 -1 -1 -1 -2 -2 -1
10 12 12 10 9 9 9 9 8 8 8 7 7 4 3 2 3 3 3 3 2 2 1 0 -0 -0 -1 -1 -1 -1 -1 -1 -1 -1 -1 -1 -2 -1 -1 -1 -1 -1 -1 -1 -2 -2 -1 -1 -1
10 12 11 10 9 8 9 9 8 9 9 7 9 7 4 4 3 3 3 3 2 1 1 0 -0 -0 -0 -0 -1 -1 -1 -1 -1 -1 -1 -2 -1 -1 -1 -1 -1 -1 -1 -1 -1 -1 -1 -1 -1
11 10 10 10 9 9 9 8 9 8 8 7 8 8 9 4 4 3 3 3 2 2 1 0 -0 -0 -0 -0 -0 -1 -0 -1 -1 -1 -1 -1 -1 -1 -1 -1 -1 -1 -1 -1 -1 -1 -1 -1 -1
11 10 10 9 9 9 9 9 9 9 7 6 6 8 9 9 4 3 2 2 2 2 1 1 -0 0 -0 -0 -0 -0 -0 -0 -1 -1 -1 -1 -1 -0 -1 -1 -1 -1 -1 -1 -1 -1 -1 -1 -1
9 10 10 9 9 9 10 10 9 9 7 7 7 7 7 10 3 3 3 3 2 2 1 1 0 0 -0 -0 -0 -0 -0 -1 -1 -1 -1 -1 -1 -1 -0 -0 -0 -1 -1 -1 -1 -0 -1 -0 -1
10 11 10 10 9 10 9 11 11 8 7 7 7 7 7 7 4 3 3 3 2 2 1 1 1 0 -0 -0 -0 -0 -0 -1 -0 -1 -1 -1 -1 -1 -1 -0 -0 -0 -1 -1 -1 -1 -1 -0 -0
11 11 13 10 10 10 10 12 9 7 7 8 7 7 6 6 5 2 2 2 2 1 2 1 0 0 0 -0 -0 -0 -0 -0 -0 -1 -1 -1 -1 -1 -1 -0 -0 -1 -1 -1 -0 -0 0 0 0
12 14 14 12 9 9 11 11 8 7 8 8 7 7 6 6 5 2 2 2 2 1 1 1 1 1 0 -0 -0 -0 -1 -0 -0 -1 -1 -1 -1 -1 -1 -0 -0 -1 -0 -0 -0 0 0 1 1
15 15 14 13 11 10 11 11 10 8 8 7 7 7 7 6 5 3 2 1 1 1 1 1 1 0 0 -0 -0 -0 -0 -0 -1 -0 -1 -1 -1 -1 -0 -0 -0 -0 0 0 -0 1 0 0 1
12 13 13 12 10 11 11 10 10 8 8 8 7 7 7 6 4 4 2 1 2 1 1 1 1 1 1 1 1 1 2 1 0 -1 -1 -0 1 0 1 0 0 -0 1 1 0 0 1 1 0
11 13 13 12 10 11 11 11 9 9 8 8 7 7 7 6 5 4 3 2 2 2 1 1 1 1 1 1 1 1 1 0 0 -0 -1 -0 1 1 -1 -0 0 0 0 0 0 0 1 1 -0
11 12 13 13 12 11 12 12 11 9 8 8 7 6 6 5 5 3 3 2 2 2 2 1 1 1 0 0 0 1 0 0 1 0 0 -0 -0 -0 -1 -0 -0 -0 -0 1 -0 -0 1 2 0
13 10 11 12 13 15 11 15 12 10 9 8 7 7 6 6 5 3 3 3 3 2 1 1 1 1 0 0 1 1 2 2 1 1 0 0 -1 -0 -0 0 0 -0 -0 0 1 1 1 2 2
11 9 11 12 13 13 13 14 12 10 10 9 8 6 6 5 5 3 3 3 2 2 2 1 1 1 0 0 0 1 1 1 1 1 1 3 3 2 2 2 3 4 3 2 2 1 0 0 1
8 10 11 11 12 16 13 14 13 12 10 9 6 6 5 5 4 4 3 3 3 2 3 3 3 3 1 1 1 1 1 1 2 2 2 3 3 3 2 3 2 2 1 1 1 -0 -0 0 0
9 11 16 17 16 17 13 14 12 10 9 8 6 7 6 5 5 5 5 4 4 4 4 4 4 5 5 4 2 2 2 1 2 2 3 3 3 3 3 2 1 1 0 0 0 1 1 2 2
11 11 14 19 18 17 14 16 13 9 8 6 6 6 6 6 5 5 4 4 4 3 3 3 3 4 4 5 4 3 2 3 4 3 2 4 4 4 2 2 1 1 1 1 1 2 2 2 2
11 12 9 13 13 15 15 13 11 8 8 8 8 8 7 6 6 5 5 4 3 4 3 3 3 3 3 3 4 3 3 3 3 4 3 4 4 4 3 3 3 3 3 2 1 2 2 2 2
9 8 13 12 17 18 15 14 13 11 10 9 9 9 8 6 6 5 6 5 4 4 4 3 2 3 3 3 3 2 3 3 3 3 3 3 2 2 2 2 2 2 2 2 2 2 2 3 3
12 12 10 10 12 15 17 14 10 10 9 9 9 8 7 7 7 7 6 5 4 3 3 3 3 4 4 3 3 2 3 3 3 3 2 2 2 2 3 3 3 3 3 3 3 3 3 3 3
10 10 10 14 15 12 13 15 10 9 9 8 9 8 7 6 6 6 5 5 5 4 4 4 3 3 3 3 3 3 2 2 2 2 2 1 1 2 2 2 2 2 2 2 3 3 3 3 3